Time,TemperatureF,DewpointF,PressureIn,WindDirection,WindDirectionDegrees,WindSpeedMPH,WindSpeedGustMPH,Humidity,HourlyPrecipIn,Conditions,Clouds,dailyrainin,SoftwareType,DateUTC
2013-03-17 00:00:00,49.8,37.8,28.32,NE,45,14.0,24.0,63,0.00,,,0.00,meteohub,2013-03-17 05:00:00,
2013-03-17 00:05:00,49.8,37.8,28.32,NW,315,22.0,24.0,63,0.00,,,0.00,meteohub,2013-03-17 05:05:00,
2013-03-17 00:10:00,49.5,37.8,28.31,North,0,16.0,28.0,64,0.00,,,0.00,meteohub,2013-03-17 05:10:00,
2013-03-17 00:15:00,49.3,37.9,28.32,NW,315,13.0,28.0,65,0.00,,,0.00,meteohub,2013-03-17 05:15:00,
2013-03-17 00:20:00,49.1,37.8,28.32,NE,45,15.0,22.0,65,0.00,,,0.00,meteohub,2013-03-17 05:20:00,
2013-03-17 00:25:00,49.1,37.8,28.33,North,0,13.0,19.0,65,0.00,,,0.00,meteohub,2013-03-17 05:25:00,
2013-03-17 00:30:00,48.9,37.2,28.33,North,0,14.0,19.0,64,0.00,,,0.00,meteohub,2013-03-17 05:30:00,
2013-03-17 00:35:00,48.6,37.4,28.32,North,0,15.0,19.0,65,0.00,,,0.00,meteohub,2013-03-17 05:35:00,
2013-03-17 00:40:00,48.0,36.9,28.32,North,0,12.0,21.0,65,0.00,,,0.00,meteohub,2013-03-17 05:40:00,
2013-03-17 00:45:00,48.0,37.2,28.32,North,0,15.0,21.0,66,0.00,,,0.00,meteohub,2013-03-17 05:45:00,
2013-03-17 00:50:00,47.8,37.0,28.33,North,0,15.0,21.0,66,0.00,,,0.00,meteohub,2013-03-17 05:50:00,
2013-03-17 00:55:00,47.7,36.9,28.33,SE,135,17.0,20.0,66,0.00,,,0.00,meteohub,2013-03-17 05:55:00,
2013-03-17 01:00:00,47.5,36.7,28.34,NE,45,16.0,20.0,66,0.00,,,0.00,meteohub,2013-03-17 06:00:00,
2013-03-17 01:05:00,47.5,36.7,28.33,North,0,15.0,21.0,66,0.00,,,0.00,meteohub,2013-03-17 06:05:00,
2013-03-17 01:10:00,47.3,36.5,28.33,North,0,15.0,21.0,66,0.00,,,0.00,meteohub,2013-03-17 06:10:00,
2013-03-17 01:15:00,47.3,36.5,28.33,North,0,13.0,18.0,66,0.00,,,0.00,meteohub,2013-03-17 06:15:00,
2013-03-17 01:21:00,47.3,36.5,28.33,North,0,14.0,18.0,66,0.00,,,0.00,meteohub,2013-03-17 06:21:00,
2013-03-17 01:25:00,47.3,36.1,28.35,North,0,14.0,19.0,65,0.00,,,0.00,meteohub,2013-03-17 06:25:00,
2013-03-17 01:31:00,47.1,36.0,28.35,North,0,17.0,19.0,65,0.00,,,0.00,meteohub,2013-03-17 06:31:00,
2013-03-17 01:35:00,46.9,35.8,28.34,NE,45,16.0,19.0,65,0.00,,,0.00,meteohub,2013-03-17 06:35:00,
2013-03-17 01:41:00,47.1,36.0,28.33,NW,315,11.0,21.0,65,0.00,,,0.00,meteohub,2013-03-17 06:41:00,
2013-03-17 01:46:00,46.9,35.8,28.34,North,0,11.0,21.0,65,0.00,,,0.00,meteohub,2013-03-17 06:46:00,
2013-03-17 01:51:00,46.6,35.8,28.34,WNW,293,13.0,21.0,66,0.00,,,0.00,meteohub,2013-03-17 06:51:00,
2013-03-17 01:56:00,46.6,35.8,28.34,North,0,17.0,21.0,66,0.00,,,0.00,meteohub,2013-03-17 06:56:00,
2013-03-17 02:01:00,46.2,35.4,28.33,North,0,15.0,21.0,66,0.00,,,0.00,meteohub,2013-03-17 07:01:00,
2013-03-17 02:06:00,46.4,35.6,28.34,NW,315,11.0,19.0,66,0.00,,,0.00,meteohub,2013-03-17 07:06:00,
2013-03-17 02:11:00,46.4,35.6,28.34,North,0,9.0,19.0,66,0.00,,,0.00,meteohub,2013-03-17 07:11:00,
2013-03-17 02:16:00,46.2,36.0,28.34,NE,45,12.0,21.0,67,0.00,,,0.00,meteohub,2013-03-17 07:16:00,
2013-03-17 02:21:00,46.0,35.2,28.34,North,0,17.0,21.0,66,0.00,,,0.00,meteohub,2013-03-17 07:21:00,
2013-03-17 02:26:00,45.9,35.6,28.34,North,0,15.0,21.0,67,0.00,,,0.00,meteohub,2013-03-17 07:26:00,
2013-03-17 02:31:00,45.7,35.4,28.34,NW,315,17.0,22.0,67,0.00,,,0.00,meteohub,2013-03-17 07:31:00,
2013-03-17 02:36:00,45.5,35.6,28.34,North,0,12.0,22.0,68,0.00,,,0.00,meteohub,2013-03-17 07:36:00,
2013-03-17 02:41:00,45.3,35.4,28.34,NW,315,11.0,22.0,68,0.00,,,0.00,meteohub,2013-03-17 07:41:00,
2013-03-17 02:46:00,45.3,35.4,28.34,North,0,11.0,18.0,68,0.00,,,0.00,meteohub,2013-03-17 07:46:00,
2013-03-17 02:51:00,45.1,35.2,28.33,North,0,21.0,21.0,68,0.00,,,0.00,meteohub,2013-03-17 07:51:00,
2013-03-17 02:56:00,45.0,35.1,28.34,North,0,11.0,21.0,68,0.00,,,0.00,meteohub,2013-03-17 07:56:00,
2013-03-17 03:02:00,44.8,35.2,28.34,North,0,15.0,21.0,69,0.00,,,0.00,meteohub,2013-03-17 08:02:00,
2013-03-17 03:07:00,44.6,35.1,28.33,NE,45,12.0,21.0,69,0.00,,,0.00,meteohub,2013-03-17 08:07:00,
2013-03-17 03:12:00,44.2,34.7,28.34,North,0,10.0,23.0,69,0.00,,,0.00,meteohub,2013-03-17 08:12:00,
2013-03-17 03:17:00,44.2,34.7,28.35,North,0,15.0,23.0,69,0.00,,,0.00,meteohub,2013-03-17 08:17:00,
2013-03-17 03:22:00,44.1,34.5,28.35,NE,45,15.0,23.0,69,0.00,,,0.00,meteohub,2013-03-17 08:22:00,
2013-03-17 03:27:00,44.1,34.9,28.34,North,0,13.0,23.0,70,0.00,,,0.00,meteohub,2013-03-17 08:27:00,
2013-03-17 03:32:00,44.2,35.1,28.35,North,0,17.0,20.0,70,0.00,,,0.00,meteohub,2013-03-17 08:32:00,
2013-03-17 03:37:00,43.9,34.7,28.35,North,0,9.0,20.0,70,0.00,,,0.00,meteohub,2013-03-17 08:37:00,
2013-03-17 03:42:00,43.7,34.5,28.34,North,0,14.0,19.0,70,0.00,,,0.00,meteohub,2013-03-17 08:42:00,
2013-03-17 03:47:00,43.5,34.7,28.35,NE,45,10.0,19.0,71,0.00,,,0.00,meteohub,2013-03-17 08:47:00,
2013-03-17 03:52:00,43.5,34.7,28.35,North,0,11.0,19.0,71,0.00,,,0.00,meteohub,2013-03-17 08:52:00,
2013-03-17 03:57:00,43.3,34.5,28.35,NW,315,10.0,21.0,71,0.00,,,0.00,meteohub,2013-03-17 08:57:00,
2013-03-17 04:02:00,43.5,34.7,28.35,NE,45,12.0,21.0,71,0.00,,,0.00,meteohub,2013-03-17 09:02:00,
2013-03-17 04:07:00,43.3,34.5,28.35,NE,45,12.0,21.0,71,0.00,,,0.00,meteohub,2013-03-17 09:07:00,
2013-03-17 04:13:00,43.2,34.7,28.34,North,0,20.0,20.0,72,0.00,,,0.00,meteohub,2013-03-17 09:13:00,
2013-03-17 04:18:00,42.8,34.3,28.34,North,0,9.0,20.0,72,0.00,,,0.00,meteohub,2013-03-17 09:18:00,
2013-03-17 04:23:00,42.8,34.3,28.34,NE,45,12.0,20.0,72,0.00,,,0.00,meteohub,2013-03-17 09:23:00,
2013-03-17 04:28:00,42.8,34.3,28.34,North,0,8.0,20.0,72,0.00,,,0.00,meteohub,2013-03-17 09:28:00,
2013-03-17 04:33:00,42.6,34.2,28.34,North,0,15.0,17.0,72,0.00,,,0.00,meteohub,2013-03-17 09:33:00,
2013-03-17 04:38:00,42.4,34.0,28.34,North,0,10.0,15.0,72,0.00,,,0.00,meteohub,2013-03-17 09:38:00,
2013-03-17 04:43:00,42.4,34.3,28.35,North,0,9.0,15.0,73,0.00,,,0.00,meteohub,2013-03-17 09:43:00,
2013-03-17 04:48:00,42.4,34.3,28.34,North,0,11.0,15.0,73,0.00,,,0.00,meteohub,2013-03-17 09:48:00,
2013-03-17 04:53:00,42.4,34.3,28.34,NW,315,15.0,15.0,73,0.00,,,0.00,meteohub,2013-03-17 09:53:00,
2013-03-17 04:58:00,42.1,34.0,28.33,North,0,8.0,15.0,73,0.00,,,0.00,meteohub,2013-03-17 09:58:00,
2013-03-17 05:03:00,42.1,34.0,28.34,North,0,14.0,15.0,73,0.00,,,0.00,meteohub,2013-03-17 10:03:00,
2013-03-17 05:08:00,42.3,34.2,28.35,NE,45,5.0,16.0,73,0.00,,,0.00,meteohub,2013-03-17 10:08:00,
2013-03-17 05:13:00,42.1,34.0,28.35,North,0,10.0,16.0,73,0.00,,,0.00,meteohub,2013-03-17 10:13:00,
2013-03-17 05:18:00,42.3,34.2,28.35,North,0,14.0,16.0,73,0.00,,,0.00,meteohub,2013-03-17 10:18:00,
2013-03-17 05:23:00,42.1,34.0,28.35,North,0,14.0,17.0,73,0.00,,,0.00,meteohub,2013-03-17 10:23:00,
2013-03-17 05:28:00,42.3,34.2,28.35,NE,45,21.0,21.0,73,0.00,,,0.00,meteohub,2013-03-17 10:28:00,
2013-03-17 05:33:00,42.1,34.0,28.35,North,0,11.0,21.0,73,0.00,,,0.00,meteohub,2013-03-17 10:33:00,
2013-03-17 05:38:00,42.3,34.2,28.36,NW,315,11.0,21.0,73,0.00,,,0.00,meteohub,2013-03-17 10:38:00,
2013-03-17 05:43:00,42.3,34.2,28.36,North,0,15.0,21.0,73,0.00,,,0.00,meteohub,2013-03-17 10:43:00,
2013-03-17 05:48:00,42.1,34.0,28.36,North,0,11.0,15.0,73,0.00,,,0.00,meteohub,2013-03-17 10:48:00,
2013-03-17 05:53:00,41.9,33.8,28.36,North,0,17.0,17.0,73,0.00,,,0.00,meteohub,2013-03-17 10:53:00,
2013-03-17 05:58:00,41.7,34.0,28.36,North,0,11.0,17.0,74,0.00,,,0.00,meteohub,2013-03-17 10:58:00,
2013-03-17 06:03:00,41.5,33.8,28.36,North,0,11.0,17.0,74,0.00,,,0.00,meteohub,2013-03-17 11:03:00,
2013-03-17 06:08:00,41.2,33.4,28.37,NNW,338,11.0,17.0,74,0.00,,,0.00,meteohub,2013-03-17 11:08:00,
2013-03-17 06:13:00,41.2,33.8,28.36,North,0,11.0,16.0,75,0.00,,,0.00,meteohub,2013-03-17 11:13:00,
2013-03-17 06:18:00,41.0,33.6,28.37,North,0,8.0,16.0,75,0.00,,,0.00,meteohub,2013-03-17 11:18:00,
2013-03-17 06:23:00,41.0,33.6,28.37,North,0,8.0,17.0,75,0.00,,,0.00,meteohub,2013-03-17 11:23:00,
2013-03-17 06:28:00,40.8,33.8,28.36,North,0,10.0,17.0,76,0.00,,,0.00,meteohub,2013-03-17 11:28:00,
2013-03-17 06:33:00,40.8,33.8,28.37,North,0,11.0,16.0,76,0.00,,,0.00,meteohub,2013-03-17 11:33:00,
2013-03-17 06:38:00,40.5,33.4,28.37,NW,315,9.0,16.0,76,0.00,,,0.00,meteohub,2013-03-17 11:38:00,
2013-03-17 06:43:00,40.3,33.3,28.36,North,0,13.0,16.0,76,0.00,,,0.00,meteohub,2013-03-17 11:43:00,
2013-03-17 06:48:00,40.6,33.6,28.36,NW,315,17.0,17.0,76,0.00,,,0.00,meteohub,2013-03-17 11:48:00,
2013-03-17 06:53:00,40.3,33.3,28.36,NW,315,12.0,15.0,76,0.00,,,0.00,meteohub,2013-03-17 11:53:00,
2013-03-17 06:58:00,39.7,33.1,28.36,North,0,11.0,17.0,77,0.00,,,0.00,meteohub,2013-03-17 11:58:00,
2013-03-17 07:03:00,39.9,32.9,28.36,North,0,15.0,17.0,76,0.00,,,0.00,meteohub,2013-03-17 12:03:00,
2013-03-17 07:08:00,40.1,33.4,28.36,North,0,17.0,19.0,77,0.00,,,0.00,meteohub,2013-03-17 12:08:00,
2013-03-17 07:13:00,39.7,33.1,28.35,WNW,293,9.0,19.0,77,0.00,,,0.00,meteohub,2013-03-17 12:13:00,
2013-03-17 07:18:00,39.7,33.1,28.36,NW,315,11.0,19.0,77,0.00,,,0.00,meteohub,2013-03-17 12:18:00,
2013-03-17 07:24:00,39.6,32.9,28.36,North,0,11.0,17.0,77,0.00,,,0.00,meteohub,2013-03-17 12:24:00,
2013-03-17 07:29:00,39.2,32.5,28.36,North,0,12.0,16.0,77,0.00,,,0.00,meteohub,2013-03-17 12:29:00,
2013-03-17 07:34:00,39.4,33.1,28.36,NW,315,9.0,16.0,78,0.00,,,0.00,meteohub,2013-03-17 12:34:00,
2013-03-17 07:39:00,39.0,32.7,28.35,NE,45,8.0,16.0,78,0.00,,,0.00,meteohub,2013-03-17 12:39:00,
2013-03-17 07:44:00,38.8,32.5,28.36,NW,315,7.0,17.0,78,0.00,,,0.00,meteohub,2013-03-17 12:44:00,
2013-03-17 07:49:00,38.8,32.5,28.36,North,0,11.0,17.0,78,0.00,,,0.00,meteohub,2013-03-17 12:49:00,
2013-03-17 07:54:00,38.8,32.9,28.36,NW,315,7.0,17.0,79,0.00,,,0.00,meteohub,2013-03-17 12:54:00,
2013-03-17 07:59:00,38.8,32.9,28.36,North,0,3.0,12.0,79,0.00,,,0.00,meteohub,2013-03-17 12:59:00,
2013-03-17 08:04:00,38.5,32.5,28.35,NE,45,15.0,15.0,79,0.00,,,0.00,meteohub,2013-03-17 13:04:00,
2013-03-17 08:09:00,38.5,32.5,28.36,North,0,11.0,15.0,79,0.00,,,0.00,meteohub,2013-03-17 13:09:00,
2013-03-17 08:14:00,38.7,32.7,28.37,NE,45,5.0,15.0,79,0.00,,,0.00,meteohub,2013-03-17 13:14:00,
2013-03-17 08:19:00,38.8,32.9,28.38,North,0,5.0,15.0,79,0.00,,,0.00,meteohub,2013-03-17 13:19:00,
2013-03-17 08:24:00,38.7,32.7,28.38,NW,315,5.0,13.0,79,0.00,,,0.00,meteohub,2013-03-17 13:24:00,
2013-03-17 08:29:00,38.8,32.9,28.38,North,0,6.0,10.0,79,0.00,,,0.00,meteohub,2013-03-17 13:29:00,
2013-03-17 08:34:00,38.7,32.7,28.38,North,0,9.0,10.0,79,0.00,,,0.00,meteohub,2013-03-17 13:34:00,
2013-03-17 08:39:00,39.0,32.7,28.38,West,270,6.0,9.0,78,0.00,,,0.00,meteohub,2013-03-17 13:39:00,
2013-03-17 08:44:00,39.2,32.9,28.38,West,270,8.0,10.0,78,0.00,,,0.00,meteohub,2013-03-17 13:44:00,
2013-03-17 08:49:00,39.2,32.9,28.37,NW,315,11.0,11.0,78,0.00,,,0.00,meteohub,2013-03-17 13:49:00,
2013-03-17 08:54:00,39.2,32.9,28.38,North,0,12.0,12.0,78,0.00,,,0.00,meteohub,2013-03-17 13:54:00,
2013-03-17 08:59:00,39.4,33.1,28.39,North,0,7.0,12.0,78,0.00,,,0.00,meteohub,2013-03-17 13:59:00,
2013-03-17 09:04:00,39.6,33.3,28.38,North,0,7.0,12.0,78,0.00,,,0.00,meteohub,2013-03-17 14:04:00,
2013-03-17 09:09:00,39.9,33.3,28.37,North,0,10.0,12.0,77,0.00,,,0.00,meteohub,2013-03-17 14:09:00,
2013-03-17 09:14:00,39.6,32.9,28.37,North,0,12.0,13.0,77,0.00,,,0.00,meteohub,2013-03-17 14:14:00,
2013-03-17 09:19:00,39.7,33.1,28.37,North,0,12.0,13.0,77,0.00,,,0.00,meteohub,2013-03-17 14:19:00,
2013-03-17 09:24:00,39.9,33.3,28.38,NW,315,10.0,15.0,77,0.00,,,0.00,meteohub,2013-03-17 14:24:00,
2013-03-17 09:29:00,40.3,33.3,28.39,North,0,8.0,15.0,76,0.00,,,0.00,meteohub,2013-03-17 14:29:00,
2013-03-17 09:34:00,41.2,34.2,28.37,NW,315,11.0,13.0,76,0.00,,,0.00,meteohub,2013-03-17 14:34:00,
2013-03-17 09:39:00,41.5,33.8,28.38,NW,315,6.0,13.0,74,0.00,,,0.00,meteohub,2013-03-17 14:39:00,
2013-03-17 09:44:00,42.1,33.8,28.37,North,0,9.0,14.0,72,0.00,,,0.00,meteohub,2013-03-17 14:44:00,
2013-03-17 09:49:00,42.1,33.8,28.37,North,0,8.0,14.0,72,0.00,,,0.00,meteohub,2013-03-17 14:49:00,
2013-03-17 09:54:00,41.4,33.1,28.37,NW,315,13.0,14.0,72,0.00,,,0.00,meteohub,2013-03-17 14:54:00,
2013-03-17 09:59:00,41.4,33.4,28.38,North,0,8.0,15.0,73,0.00,,,0.00,meteohub,2013-03-17 14:59:00,
2013-03-17 10:04:00,41.9,33.8,28.39,North,0,11.0,15.0,73,0.00,,,0.00,meteohub,2013-03-17 15:04:00,
2013-03-17 10:09:00,42.1,33.8,28.38,NW,315,11.0,13.0,72,0.00,,,0.00,meteohub,2013-03-17 15:09:00,
2013-03-17 10:14:00,42.4,34.0,28.39,North,0,11.0,12.0,72,0.00,,,0.00,meteohub,2013-03-17 15:14:00,
2013-03-17 10:19:00,42.4,34.0,28.39,North,0,8.0,12.0,72,0.00,,,0.00,meteohub,2013-03-17 15:19:00,
2013-03-17 10:24:00,42.3,33.8,28.39,WNW,293,11.0,14.0,72,0.00,,,0.00,meteohub,2013-03-17 15:24:00,
2013-03-17 10:29:00,41.9,33.8,28.40,NW,315,8.0,14.0,73,0.00,,,0.00,meteohub,2013-03-17 15:29:00,
2013-03-17 10:34:00,41.5,33.8,28.40,NW,315,15.0,15.0,74,0.00,,,0.00,meteohub,2013-03-17 15:34:00,
2013-03-17 10:39:00,41.7,34.0,28.40,North,0,10.0,11.0,74,0.00,,,0.00,meteohub,2013-03-17 15:39:00,
2013-03-17 10:44:00,42.1,34.3,28.40,NW,315,9.0,15.0,74,0.00,,,0.00,meteohub,2013-03-17 15:44:00,
2013-03-17 10:49:00,42.6,34.5,28.40,NW,315,7.0,15.0,73,0.00,,,0.00,meteohub,2013-03-17 15:49:00,
2013-03-17 10:54:00,43.0,34.5,28.39,North,0,9.0,12.0,72,0.00,,,0.00,meteohub,2013-03-17 15:54:00,
2013-03-17 10:59:00,43.3,34.5,28.39,North,0,8.0,12.0,71,0.00,,,0.00,meteohub,2013-03-17 15:59:00,
2013-03-17 11:04:00,43.5,34.3,28.39,North,0,8.0,12.0,70,0.00,,,0.00,meteohub,2013-03-17 16:04:00,
2013-03-17 11:09:00,44.1,35.2,28.38,NW,315,9.0,12.0,71,0.00,,,0.00,meteohub,2013-03-17 16:09:00,
2013-03-17 11:14:00,44.2,34.7,28.39,West,270,8.0,11.0,69,0.00,,,0.00,meteohub,2013-03-17 16:14:00,
2013-03-17 11:19:00,44.4,34.5,28.39,NW,315,11.0,13.0,68,0.00,,,0.00,meteohub,2013-03-17 16:19:00,
2013-03-17 11:24:00,44.4,34.9,28.39,NW,315,8.0,13.0,69,0.00,,,0.00,meteohub,2013-03-17 16:24:00,
2013-03-17 11:30:00,44.8,35.2,28.39,North,0,8.0,13.0,69,0.00,,,0.00,meteohub,2013-03-17 16:30:00,
2013-03-17 11:35:00,44.8,35.6,28.38,North,0,10.0,11.0,70,0.00,,,0.00,meteohub,2013-03-17 16:35:00,
2013-03-17 11:40:00,45.3,35.4,28.39,WNW,293,10.0,13.0,68,0.00,,,0.00,meteohub,2013-03-17 16:40:00,
2013-03-17 11:45:00,45.1,35.2,28.39,NW,315,7.0,13.0,68,0.00,,,0.00,meteohub,2013-03-17 16:45:00,
2013-03-17 11:50:00,45.3,35.4,28.39,NW,315,11.0,13.0,68,0.00,,,0.00,meteohub,2013-03-17 16:50:00,
2013-03-17 11:55:00,45.3,35.4,28.39,WNW,293,9.0,11.0,68,0.00,,,0.00,meteohub,2013-03-17 16:55:00,
2013-03-17 12:00:00,45.9,35.6,28.38,North,0,8.0,11.0,67,0.00,,,0.00,meteohub,2013-03-17 17:00:00,
2013-03-17 12:05:00,46.2,35.4,28.38,NW,315,13.0,13.0,66,0.00,,,0.00,meteohub,2013-03-17 17:05:00,
2013-03-17 12:10:00,46.0,35.8,28.38,NW,315,9.0,11.0,67,0.00,,,0.00,meteohub,2013-03-17 17:10:00,
2013-03-17 12:15:00,46.0,35.8,28.38,NW,315,9.0,14.0,67,0.00,,,0.00,meteohub,2013-03-17 17:15:00,
2013-03-17 12:20:00,46.4,36.5,28.38,NW,315,9.0,14.0,68,0.00,,,0.00,meteohub,2013-03-17 17:20:00,
2013-03-17 12:25:00,46.8,36.0,28.38,North,0,11.0,14.0,66,0.00,,,0.00,meteohub,2013-03-17 17:25:00,
2013-03-17 12:30:00,47.3,35.8,28.38,NW,315,9.0,12.0,64,0.00,,,0.00,meteohub,2013-03-17 17:30:00,
2013-03-17 12:35:00,47.5,36.0,28.37,NW,315,8.0,11.0,64,0.00,,,0.00,meteohub,2013-03-17 17:35:00,
2013-03-17 12:40:00,47.5,36.3,28.37,West,270,7.0,11.0,65,0.00,,,0.00,meteohub,2013-03-17 17:40:00,
2013-03-17 12:45:00,48.0,36.9,28.36,West,270,7.0,11.0,65,0.00,,,0.00,meteohub,2013-03-17 17:45:00,
2013-03-17 12:50:00,48.0,36.5,28.36,NE,45,11.0,11.0,64,0.00,,,0.00,meteohub,2013-03-17 17:50:00,
2013-03-17 12:55:00,48.7,36.7,28.35,North,0,7.0,10.0,63,0.00,,,0.00,meteohub,2013-03-17 17:55:00,
2013-03-17 13:00:00,49.1,37.0,28.35,West,270,8.0,11.0,63,0.00,,,0.00,meteohub,2013-03-17 18:00:00,
2013-03-17 13:05:00,48.9,37.2,28.35,North,0,8.0,11.0,64,0.00,,,0.00,meteohub,2013-03-17 18:05:00,
2013-03-17 13:10:00,49.6,37.6,28.34,North,0,4.0,11.0,63,0.00,,,0.00,meteohub,2013-03-17 18:10:00,
2013-03-17 13:15:00,50.5,37.9,28.33,West,270,5.0,11.0,62,0.00,,,0.00,meteohub,2013-03-17 18:15:00,
2013-03-17 13:20:00,50.5,37.2,28.33,NW,315,10.0,11.0,60,0.00,,,0.00,meteohub,2013-03-17 18:20:00,
2013-03-17 13:25:00,50.2,37.2,28.33,NE,45,8.0,8.0,61,0.00,,,0.00,meteohub,2013-03-17 18:25:00,
2013-03-17 13:30:00,50.5,38.8,28.32,NW,315,5.0,10.0,64,0.00,,,0.00,meteohub,2013-03-17 18:30:00,
2013-03-17 13:35:00,51.6,39.4,28.32,NW,315,6.0,10.0,63,0.00,,,0.00,meteohub,2013-03-17 18:35:00,
2013-03-17 13:40:00,52.2,38.7,28.32,North,0,5.0,9.0,60,0.00,,,0.00,meteohub,2013-03-17 18:40:00,
2013-03-17 13:45:00,52.2,38.7,28.32,NE,45,9.0,9.0,60,0.00,,,0.00,meteohub,2013-03-17 18:45:00,
2013-03-17 13:50:00,52.2,39.2,28.31,NW,315,7.0,9.0,61,0.00,,,0.00,meteohub,2013-03-17 18:50:00,
2013-03-17 13:55:00,52.2,37.8,28.31,West,270,5.0,9.0,58,0.00,,,0.00,meteohub,2013-03-17 18:55:00,
2013-03-17 14:00:00,52.3,38.8,28.31,West,270,7.0,9.0,60,0.00,,,0.00,meteohub,2013-03-17 19:00:00,
2013-03-17 14:05:00,52.5,39.0,28.30,NW,315,6.0,8.0,60,0.00,,,0.00,meteohub,2013-03-17 19:05:00,
2013-03-17 14:10:00,52.9,39.0,28.30,West,270,6.0,8.0,59,0.00,,,0.00,meteohub,2013-03-17 19:10:00,
2013-03-17 14:15:00,52.9,39.0,28.30,NW,315,9.0,9.0,59,0.00,,,0.00,meteohub,2013-03-17 19:15:00,
2013-03-17 14:20:00,53.6,40.1,28.30,West,270,4.0,11.0,60,0.00,,,0.00,meteohub,2013-03-17 19:20:00,
2013-03-17 14:25:00,53.6,40.1,28.29,NW,315,7.0,11.0,60,0.00,,,0.00,meteohub,2013-03-17 19:25:00,
2013-03-17 14:30:00,53.6,39.2,28.28,NE,45,9.0,11.0,58,0.00,,,0.00,meteohub,2013-03-17 19:30:00,
2013-03-17 14:35:00,54.1,40.1,28.28,NW,315,6.0,11.0,59,0.00,,,0.00,meteohub,2013-03-17 19:35:00,
2013-03-17 14:40:00,54.5,40.1,28.27,NE,45,4.0,10.0,58,0.00,,,0.00,meteohub,2013-03-17 19:40:00,
2013-03-17 14:45:00,55.4,40.8,28.27,North,0,5.0,9.0,58,0.00,,,0.00,meteohub,2013-03-17 19:45:00,
2013-03-17 14:50:00,54.9,39.0,28.27,West,270,8.0,8.0,55,0.00,,,0.00,meteohub,2013-03-17 19:50:00,
2013-03-17 14:55:00,54.7,39.4,28.27,West,270,4.0,8.0,56,0.00,,,0.00,meteohub,2013-03-17 19:55:00,
2013-03-17 15:00:00,54.9,40.3,28.27,West,270,4.0,8.0,58,0.00,,,0.00,meteohub,2013-03-17 20:00:00,
2013-03-17 15:05:00,55.2,40.3,28.26,NE,45,4.0,8.0,57,0.00,,,0.00,meteohub,2013-03-17 20:05:00,
2013-03-17 15:11:00,55.6,40.6,28.26,NW,315,3.0,8.0,57,0.00,,,0.00,meteohub,2013-03-17 20:11:00,
2013-03-17 15:16:00,55.9,40.5,28.26,NW,315,4.0,5.0,56,0.00,,,0.00,meteohub,2013-03-17 20:16:00,
2013-03-17 15:21:00,56.1,40.6,28.26,NW,315,4.0,8.0,56,0.00,,,0.00,meteohub,2013-03-17 20:21:00,
2013-03-17 15:26:00,56.1,39.7,28.27,West,270,6.0,9.0,54,0.00,,,0.00,meteohub,2013-03-17 20:26:00,
2013-03-17 15:31:00,56.1,39.7,28.25,West,270,7.0,9.0,54,0.00,,,0.00,meteohub,2013-03-17 20:31:00,
2013-03-17 15:36:00,56.5,40.5,28.25,South,180,3.0,9.0,55,0.00,,,0.00,meteohub,2013-03-17 20:36:00,
2013-03-17 15:41:00,57.2,40.6,28.25,West,270,4.0,7.0,54,0.00,,,0.00,meteohub,2013-03-17 20:41:00,
2013-03-17 15:46:00,57.4,40.8,28.24,North,0,2.0,7.0,54,0.00,,,0.00,meteohub,2013-03-17 20:46:00,
2013-03-17 15:51:00,57.0,40.1,28.24,East,90,2.0,5.0,53,0.00,,,0.00,meteohub,2013-03-17 20:51:00,
2013-03-17 15:56:00,56.3,39.9,28.24,East,90,6.0,6.0,54,0.00,,,0.00,meteohub,2013-03-17 20:56:00,
2013-03-17 16:02:00,56.3,40.8,28.25,East,90,3.0,6.0,56,0.00,,,0.00,meteohub,2013-03-17 21:02:00,
2013-03-17 16:07:00,56.5,40.5,28.23,East,90,2.0,6.0,55,0.00,,,0.00,meteohub,2013-03-17 21:07:00,
2013-03-17 16:12:00,56.5,40.5,28.23,East,90,4.0,6.0,55,0.00,,,0.00,meteohub,2013-03-17 21:12:00,
2013-03-17 16:17:00,57.2,40.6,28.22,SW,225,4.0,6.0,54,0.00,,,0.00,meteohub,2013-03-17 21:17:00,
2013-03-17 16:22:00,57.9,40.8,28.22,SE,135,5.0,6.0,53,0.00,,,0.00,meteohub,2013-03-17 21:22:00,
2013-03-17 16:27:00,58.6,40.6,28.22,NW,315,2.0,6.0,51,0.00,,,0.00,meteohub,2013-03-17 21:27:00,
2013-03-17 16:32:00,59.9,41.2,28.22,NE,45,3.0,6.0,50,0.00,,,0.00,meteohub,2013-03-17 21:32:00,
2013-03-17 16:37:00,59.9,41.2,28.21,SE,135,2.0,5.0,50,0.00,,,0.00,meteohub,2013-03-17 21:37:00,
2013-03-17 16:42:00,61.2,42.4,28.21,South,180,4.0,5.0,50,0.00,,,0.00,meteohub,2013-03-17 21:42:00,
2013-03-17 16:47:00,60.8,40.5,28.21,West,270,4.0,4.0,47,0.00,,,0.00,meteohub,2013-03-17 21:47:00,
2013-03-17 16:53:00,60.1,40.3,28.21,SE,135,5.0,5.0,48,0.00,,,0.00,meteohub,2013-03-17 21:53:00,
2013-03-17 16:58:00,59.2,40.6,28.21,NE,45,4.0,5.0,50,0.00,,,0.00,meteohub,2013-03-17 21:58:00,
2013-03-17 17:03:00,58.8,40.8,28.20,East,90,4.0,5.0,51,0.00,,,0.00,meteohub,2013-03-17 22:03:00,
2013-03-17 17:08:00,59.5,41.4,28.20,SE,135,4.0,5.0,51,0.00,,,0.00,meteohub,2013-03-17 22:08:00,
2013-03-17 17:13:00,59.7,41.0,28.20,South,180,4.0,5.0,50,0.00,,,0.00,meteohub,2013-03-17 22:13:00,
2013-03-17 17:18:00,60.3,41.0,28.20,South,180,4.0,5.0,49,0.00,,,0.00,meteohub,2013-03-17 22:18:00,
2013-03-17 17:23:00,59.9,40.6,28.19,West,270,2.0,6.0,49,0.00,,,0.00,meteohub,2013-03-17 22:23:00,
2013-03-17 17:28:00,59.9,40.6,28.20,South,180,3.0,6.0,49,0.00,,,0.00,meteohub,2013-03-17 22:28:00,
2013-03-17 17:33:00,60.3,41.0,28.20,SW,225,2.0,6.0,49,0.00,,,0.00,meteohub,2013-03-17 22:33:00,
2013-03-17 17:38:00,61.2,41.9,28.19,SSE,158,6.0,6.0,49,0.00,,,0.00,meteohub,2013-03-17 22:38:00,
2013-03-17 17:43:00,60.6,41.4,28.20,SE,135,4.0,6.0,49,0.00,,,0.00,meteohub,2013-03-17 22:43:00,
2013-03-17 17:48:00,59.4,41.2,28.19,SE,135,5.0,6.0,51,0.00,,,0.00,meteohub,2013-03-17 22:48:00,
2013-03-17 17:53:00,58.6,41.5,28.19,SW,225,4.0,7.0,53,0.00,,,0.00,meteohub,2013-03-17 22:53:00,
2013-03-17 17:58:00,58.1,41.0,28.18,East,90,4.0,7.0,53,0.00,,,0.00,meteohub,2013-03-17 22:58:00,
2013-03-17 18:03:00,57.7,41.2,28.18,South,180,2.0,7.0,54,0.00,,,0.00,meteohub,2013-03-17 23:03:00,
2013-03-17 18:08:00,58.3,42.3,28.18,East,90,6.0,6.0,55,0.00,,,0.00,meteohub,2013-03-17 23:08:00,
2013-03-17 18:13:00,59.4,42.8,28.19,SE,135,2.0,6.0,54,0.00,,,0.00,meteohub,2013-03-17 23:13:00,
2013-03-17 18:18:00,59.7,42.1,28.19,SE,135,5.0,6.0,52,0.00,,,0.00,meteohub,2013-03-17 23:18:00,
2013-03-17 18:23:00,59.2,42.1,28.19,East,90,3.0,6.0,53,0.00,,,0.00,meteohub,2013-03-17 23:23:00,
2013-03-17 18:28:00,59.2,42.1,28.19,East,90,7.0,7.0,53,0.00,,,0.00,meteohub,2013-03-17 23:28:00,
2013-03-17 18:33:00,59.0,42.4,28.18,East,90,8.0,8.0,54,0.00,,,0.00,meteohub,2013-03-17 23:33:00,
2013-03-17 18:38:00,59.0,42.8,28.18,SE,135,4.0,8.0,55,0.00,,,0.00,meteohub,2013-03-17 23:38:00,
2013-03-17 18:43:00,58.6,42.1,28.18,SE,135,4.0,8.0,54,0.00,,,0.00,meteohub,2013-03-17 23:43:00,
2013-03-17 18:48:00,58.5,42.4,28.19,ENE,68,5.0,8.0,55,0.00,,,0.00,meteohub,2013-03-17 23:48:00,
2013-03-17 18:53:00,58.3,42.3,28.18,East,90,8.0,8.0,55,0.00,,,0.00,meteohub,2013-03-17 23:53:00,
2013-03-17 18:58:00,58.3,42.3,28.18,East,90,8.0,8.0,55,0.00,,,0.00,meteohub,2013-03-17 23:58:00,
2013-03-17 19:03:00,57.9,41.9,28.18,East,90,8.0,9.0,55,0.00,,,0.00,meteohub,2013-03-18 00:03:00,
2013-03-17 19:08:00,57.7,42.6,28.17,SE,135,8.0,9.0,57,0.00,,,0.00,meteohub,2013-03-18 00:08:00,
2013-03-17 19:13:00,56.8,41.7,28.17,East,90,8.0,9.0,57,0.00,,,0.00,meteohub,2013-03-18 00:13:00,
2013-03-17 19:18:00,56.3,41.7,28.17,East,90,11.0,11.0,58,0.00,,,0.00,meteohub,2013-03-18 00:18:00,
2013-03-17 19:23:00,56.1,41.9,28.18,East,90,9.0,11.0,59,0.00,,,0.00,meteohub,2013-03-18 00:23:00,
2013-03-17 19:28:00,56.1,42.4,28.18,ENE,68,6.0,11.0,60,0.00,,,0.00,meteohub,2013-03-18 00:28:00,
2013-03-17 19:33:00,55.8,42.4,28.18,SE,135,8.0,11.0,61,0.00,,,0.00,meteohub,2013-03-18 00:33:00,
2013-03-17 19:38:00,55.0,41.9,28.19,SE,135,8.0,10.0,61,0.00,,,0.00,meteohub,2013-03-18 00:38:00,
2013-03-17 19:43:00,55.2,42.1,28.19,SE,135,6.0,10.0,61,0.00,,,0.00,meteohub,2013-03-18 00:43:00,
2013-03-17 19:48:00,55.0,41.9,28.19,East,90,10.0,10.0,61,0.00,,,0.00,meteohub,2013-03-18 00:48:00,
2013-03-17 19:53:00,55.0,42.3,28.19,ENE,68,9.0,10.0,62,0.00,,,0.00,meteohub,2013-03-18 00:53:00,
2013-03-17 19:58:00,54.9,42.1,28.20,East,90,6.0,11.0,62,0.00,,,0.00,meteohub,2013-03-18 00:58:00,
2013-03-17 20:03:00,54.9,41.7,28.21,SE,135,5.0,11.0,61,0.00,,,0.00,meteohub,2013-03-18 01:03:00,
2013-03-17 20:08:00,54.9,41.7,28.22,East,90,4.0,11.0,61,0.00,,,0.00,meteohub,2013-03-18 01:08:00,
2013-03-17 20:13:00,54.7,41.5,28.23,SE,135,3.0,8.0,61,0.00,,,0.00,meteohub,2013-03-18 01:13:00,
2013-03-17 20:18:00,54.5,41.7,28.22,East,90,6.0,8.0,62,0.00,,,0.00,meteohub,2013-03-18 01:18:00,
2013-03-17 20:24:00,54.9,41.7,28.22,SSE,158,5.0,8.0,61,0.00,,,0.00,meteohub,2013-03-18 01:24:00,
2013-03-17 20:29:00,54.9,41.7,28.22,East,90,5.0,8.0,61,0.00,,,0.00,meteohub,2013-03-18 01:29:00,
2013-03-17 20:34:00,54.9,42.1,28.21,SE,135,6.0,8.0,62,0.00,,,0.00,meteohub,2013-03-18 01:34:00,
2013-03-17 20:39:00,54.9,42.1,28.20,East,90,8.0,8.0,62,0.00,,,0.00,meteohub,2013-03-18 01:39:00,
2013-03-17 20:44:00,54.5,41.7,28.18,East,90,11.0,11.0,62,0.00,,,0.00,meteohub,2013-03-18 01:44:00,
2013-03-17 20:49:00,54.7,41.9,28.17,East,90,12.0,12.0,62,0.00,,,0.00,meteohub,2013-03-18 01:49:00,
2013-03-17 20:54:00,54.7,41.9,28.18,SE,135,10.0,15.0,62,0.00,,,0.00,meteohub,2013-03-18 01:54:00,
2013-03-17 20:59:00,54.5,41.7,28.17,East,90,13.0,15.0,62,0.00,,,0.00,meteohub,2013-03-18 01:59:00,
2013-03-17 21:04:00,54.5,41.7,28.17,East,90,13.0,15.0,62,0.00,,,0.00,meteohub,2013-03-18 02:04:00,
2013-03-17 21:09:00,54.3,41.5,28.16,East,90,11.0,15.0,62,0.00,,,0.00,meteohub,2013-03-18 02:09:00,
2013-03-17 21:14:00,54.1,41.4,28.16,East,90,12.0,15.0,62,0.00,,,0.00,meteohub,2013-03-18 02:14:00,
2013-03-17 21:19:00,54.7,41.9,28.16,SE,135,11.0,15.0,62,0.00,,,0.00,meteohub,2013-03-18 02:19:00,
2013-03-17 21:24:00,54.1,41.4,28.16,East,90,11.0,15.0,62,0.00,,,0.00,meteohub,2013-03-18 02:24:00,
2013-03-17 21:29:00,54.0,41.7,28.16,East,90,10.0,16.0,63,0.00,,,0.00,meteohub,2013-03-18 02:29:00,
2013-03-17 21:34:00,53.8,41.9,28.16,East,90,15.0,16.0,64,0.00,,,0.00,meteohub,2013-03-18 02:34:00,
2013-03-17 21:39:00,53.8,41.5,28.16,SE,135,11.0,15.0,63,0.00,,,0.00,meteohub,2013-03-18 02:39:00,
2013-03-17 21:44:00,53.8,41.5,28.17,East,90,12.0,15.0,63,0.00,,,0.00,meteohub,2013-03-18 02:44:00,
2013-03-17 21:49:00,54.0,41.7,28.16,NE,45,6.0,15.0,63,0.00,,,0.00,meteohub,2013-03-18 02:49:00,
2013-03-17 21:54:00,54.0,41.7,28.16,East,90,11.0,13.0,63,0.00,,,0.00,meteohub,2013-03-18 02:54:00,
2013-03-17 21:59:00,53.6,41.4,28.16,East,90,11.0,12.0,63,0.00,,,0.00,meteohub,2013-03-18 02:59:00,
2013-03-17 22:04:00,53.8,41.9,28.16,East,90,9.0,11.0,64,0.00,,,0.00,meteohub,2013-03-18 03:04:00,
2013-03-17 22:09:00,53.4,41.5,28.16,SE,135,9.0,11.0,64,0.00,,,0.00,meteohub,2013-03-18 03:09:00,
2013-03-17 22:14:00,53.4,41.2,28.16,East,90,11.0,11.0,63,0.00,,,0.00,meteohub,2013-03-18 03:14:00,
2013-03-17 22:19:00,53.6,41.7,28.16,SE,135,7.0,13.0,64,0.00,,,0.00,meteohub,2013-03-18 03:19:00,
2013-03-17 22:24:00,53.2,41.4,28.16,East,90,7.0,13.0,64,0.00,,,0.00,meteohub,2013-03-18 03:24:00,
2013-03-17 22:29:00,53.2,41.4,28.15,East,90,8.0,13.0,64,0.00,,,0.00,meteohub,2013-03-18 03:29:00,
2013-03-17 22:34:00,53.2,41.4,28.15,East,90,12.0,13.0,64,0.00,,,0.00,meteohub,2013-03-18 03:34:00,
2013-03-17 22:39:00,53.2,41.4,28.15,East,90,10.0,12.0,64,0.00,,,0.00,meteohub,2013-03-18 03:39:00,
2013-03-17 22:44:00,52.9,41.0,28.15,East,90,9.0,12.0,64,0.00,,,0.00,meteohub,2013-03-18 03:44:00,
2013-03-17 22:49:00,53.2,41.7,28.15,East,90,8.0,12.0,65,0.00,,,0.00,meteohub,2013-03-18 03:49:00,
2013-03-17 22:54:00,53.1,41.5,28.15,East,90,9.0,11.0,65,0.00,,,0.00,meteohub,2013-03-18 03:54:00,
2013-03-17 22:59:00,52.7,41.2,28.15,East,90,8.0,11.0,65,0.00,,,0.00,meteohub,2013-03-18 03:59:00,
2013-03-17 23:00:00,52.7,41.2,28.15,East,90,8.0,11.0,65,0.00,,,0.00,meteohub,2013-03-18 04:00:00,
2013-03-17 23:05:00,52.7,41.2,28.15,East,90,9.0,11.0,65,0.00,,,0.00,meteohub,2013-03-18 04:05:00,
2013-03-17 23:10:00,52.7,41.7,28.15,East,90,10.0,11.0,66,0.00,,,0.00,meteohub,2013-03-18 04:10:00,
2013-03-17 23:15:00,52.3,41.4,28.15,SE,135,10.0,10.0,66,0.00,,,0.00,meteohub,2013-03-18 04:15:00,
2013-03-17 23:20:00,52.3,41.4,28.15,East,90,10.0,13.0,66,0.00,,,0.00,meteohub,2013-03-18 04:20:00,
2013-03-17 23:25:00,52.2,41.2,28.15,SE,135,11.0,13.0,66,0.00,,,0.00,meteohub,2013-03-18 04:25:00,
2013-03-17 23:30:00,52.0,41.4,28.15,SE,135,11.0,13.0,67,0.00,,,0.00,meteohub,2013-03-18 04:30:00,
2013-03-17 23:35:00,51.8,41.2,28.15,SE,135,11.0,13.0,67,0.00,,,0.00,meteohub,2013-03-18 04:35:00,
2013-03-17 23:40:00,52.0,41.7,28.15,East,90,9.0,11.0,68,0.00,,,0.00,meteohub,2013-03-18 04:40:00,
2013-03-17 23:45:00,51.6,41.4,28.15,East,90,9.0,12.0,68,0.00,,,0.00,meteohub,2013-03-18 04:45:00,
2013-03-17 23:50:00,51.6,41.4,28.15,SE,135,8.0,12.0,68,0.00,,,0.00,meteohub,2013-03-18 04:50:00,
2013-03-17 23:55:00,51.4,41.5,28.15,NE,45,10.0,12.0,69,0.00,,,0.00,meteohub,2013-03-18 04:55:00,